This is the latest recevied weather packets stored in our database for station/object KB4RFE. If no packets are shown the sender has not sent any weather packets the latest 10 day(s).
| Time | Temp. | Humidity | Pressure | Rain* | Wind** | Luminosity | Snow |
|---|---|---|---|---|---|---|---|
| 1777845692 | 18.89° C | 56% | 1020 hPa | 0 mm | - | 64 W/m² | - |
| 1777845390 | 18.89° C | 57% | 1020 hPa | 0 mm | - | 94 W/m² | - |
| 1777845086 | 18.89° C | 55% | 1019.9 hPa | 0 mm | - | 87 W/m² | - |
| 1777844785 | 18.89° C | 55% | 1020.1 hPa | 0 mm | - | 109 W/m² | - |
| 1777844481 | 18.89° C | 54% | 1020 hPa | 0 mm | - | 121 W/m² | - |
| 1777844180 | 19.44° C | 56% | 1019.9 hPa | 0 mm | - | 360 W/m² | - |
| 1777843876 | 20° C | 56% | 1019.9 hPa | 0 mm | - | 360 W/m² | - |
| 1777843574 | 19.44° C | 55% | 1020 hPa | 0 mm | - | 399 W/m² | - |
| 1777843271 | 19.44° C | 55% | 1020 hPa | 0 mm | - | 419 W/m² | - |
| 1777842968 | 19.44° C | 55% | 1020 hPa | 0 mm | - | 443 W/m² | - |
| 1777842663 | 19.44° C | 53% | 1020.2 hPa | 0 mm | - | 465 W/m² | - |
| 1777842360 | 19.44° C | 54% | 1020.3 hPa | 0 mm | - | 506 W/m² | - |
| 1777842056 | 20° C | 55% | 1020.4 hPa | 0 mm | - | 499 W/m² | - |
| 1777841753 | 19.44° C | 54% | 1020.4 hPa | 0 mm | - | 527 W/m² | - |
| 1777841449 | 19.44° C | 52% | 1020.5 hPa | 0 mm | - | 543 W/m² | - |
| 1777841146 | 20° C | 54% | 1020.5 hPa | 0 mm | - | 579 W/m² | - |
| 1777840843 | 20° C | 55% | 1020.4 hPa | 0 mm | - | 588 W/m² | - |
| 1777840540 | 20° C | 54% | 1020.4 hPa | 0 mm | - | 601 W/m² | - |
| 1777840237 | 19.44° C | 55% | 1020.3 hPa | 0 mm | - | 620 W/m² | - |
| 1777839935 | 19.44° C | 55% | 1020.3 hPa | 0 mm | - | 628 W/m² | - |
| 1777839633 | 19.44° C | 56% | 1020.6 hPa | 0 mm | - | 607 W/m² | - |
| 1777839331 | 20° C | 56% | 1020.5 hPa | 0 mm | - | 657 W/m² | - |
| 1777839028 | 19.44° C | 58% | 1020.7 hPa | 0 mm | - | 682 W/m² | - |
| 1777838724 | 19.44° C | 56% | 1020.6 hPa | 0 mm | - | 695 W/m² | - |
| 1777838421 | 19.44° C | 58% | 1020.7 hPa | 0 mm | - | 704 W/m² | - |
* Rain latest hour (hover to see other rain measurements)
** Current wind speed in m/s (hover to see current wind gust speed)